Location: Rounton
(54.4000°N, 1.3500°W)
Time: 13:49:31
(UTC+00:00)

Transit 4A - Pass Details

Date: 29 November 2021
Orbit: 864 x 981 km, 66.8° (Epoch: 18 January)

Event Time Altitude Azimuth Distance (km) Brightness Sun altitude
Rises 22:53:41 0° 258° (WSW) 3,489 - -55.3°
Reaches altitude 10° 22:56:22 10° 267° (W) 2,568 - -55.5°
Maximum altitude 23:01:50 37° 333° (NNW) 1,399 - -55.8°
Drops below altitude 10° 23:07:30 10° 40° (NE) 2,650 - -56.1°
Sets 23:10:18 0° 49° (NE) 3,615 - -56.2°
